www.pogodaiklimat.ru

Погода и климат >> Архив погоды >> Франция >> Шато-Арну-Сент-Обан


ПОГОДА в Шато-Арну-Сент-Обане

  • Прогноз погоды в Шато-Арну-Сент-Обане
  • Монитор погоды в Шато-Арну-Сент-Обане

АРХИВ ПОГОДЫ в Шато-Арну-Сент-Обане

Время (UTC), дата Ветер
(напр.,м/с)
 
Видим.   Явления Облачность Т
(С)
Тd
(С)
f
(%)
Тe
(С)
Тes
(С)
Комфортность P
(гПа)
Po
(гПа)
Тmin
(С)
Tmax
(С)
R
(мм)
R24
(мм)
S
(см)
22 8.06 СВ 1 20 км 10/10
[]
+15.7 +6.4 54 +16 +16 1022.0 968.3
23 8.06 В 1 20 км 10/10
[]
+14.4 +8.1 66 +15 +15 1022.5 968.5
00 9.06 СВ 1
{4}
20 км 9/0
[]
+14.3 +7.6 64 +15 +15 1022.3 968.3 0
01 9.06 СВ 1 20 км 10/10
[]
+13.7 +7.7 67 +14 +14 1021.9 967.8
02 9.06 СВ 2 20 км 10/10
[]
+14.7 +6.8 59 +15 +15 1020.8 967.0
03 9.06 В 1
{4}
20 км 9/0
[]
+15.6 +6.3 54 +17 +17 1020.1 966.5 0
04 9.06 В 1 20 км 9/9
[]
+15.1 +7.1 59 +16 +16 1020.2 966.5
05 9.06 В 1 20 км н/о +15.3 +7.3 59 +16 +16 1019.6 965.9
06 9.06 СВ 1
{4}
18 км 9/0
[]
+17.0 +7.6 54 +18 +18 1019.1 965.8 +13.6 +25.5 0
07 9.06 С 4 20 км 8/8
[]
+18.5 +6.7 46 +19 +20 1018.4 965.4
08 9.06 СВ 3 20 км слаб. дождь 10/3 1050 м
[]
+17.5 +10.1 62 +18 +21 1017.5 964.4 0.2
09 9.06 С 3
{10}
20 км 10/0
[]
+19.1 +9.6 54 +20 +20 1017.3 964.5 0.2 0
10 9.06 СВ 2 20 км 8/8
[]
+19.8 +10.2 54 +22 +26 комфорт 1017.0 964.3
11 9.06 С 2 20 км 10/10
[]
+20.6 +11.8 57 +23 +23 комфорт 1016.9 964.4
12 9.06 С 2
{9}
20 км н/о +23.2 +12.2 50 +26 +26 жарко 1015.8 963.8 0
13 9.06 С 2 19 км н/о +24.5 +12.1 46 +26 +26 жарко 1014.2 962.5
14 9.06 С 2 20 км 9/9
[]
+24.9 +13.4 49 +27 +28 жарко 1013.7 962.1
15 9.06 СВ 2
{7}
20 км н/о +24.6 +14.1 52 +27 +27 жарко 1012.9 961.3 0
16 9.06 С 1 20 км н/о +25.0 +14.2 51 +27 +27 жарко 1012.8 961.3
17 9.06 ЮВ 1 20 км н/о +24.8 +15.7 57 +28 +28 жарко 1012.3 960.8
18 9.06 ЮЗ 1
{4}
18 км н/о +24.6 +14.1 52 +27 +27 жарко 1013.0 961.4 +17.0 +25.3 0
19 9.06 З 1 20 км н/о +23.1 +12.1 50 +26 +26 жарко 1013.2 961.3
20 9.06 В 1 18 км 8/8
[]
+20.6 +13.1 62 +24 +24 комфорт 1013.3 961.0
21 9.06 В 1
{4}
20 км 10/0
[]
+19.0 +13.0 68 +22 +22 комфорт 1014.0 961.4 0
22 9.06 ЮВ 1 20 км 9/9
[]
+17.4 +13.1 76 +19 +19 1014.5 961.6
23 9.06 В 1 20 км н/о +16.6 +13.1 80 +18 +18 1014.1 961.1
00 10.06 В 1
{3}
20 км 10/0
[]
+16.1 +13.4 84 +17 +17 1014.3 961.2 0
01 10.06 ЮВ 1 20 км 10/10
[]
+15.6 +13.3 86 +17 +17 1014.3 961.1
02 10.06 В 1 20 км н/о +14.8 +12.7 87 +16 +16 1014.1 960.7
03 10.06 В 1
{3}
20 км н/о +14.3 +12.8 91 +15 +15 1013.7 960.3 0
04 10.06 В 1 20 км н/о +13.4 +12.3 93 +14 +14 1013.0 959.4
05 10.06 В 1 20 км н/о +16.2 +13.1 82 +17 +17 1011.9 958.9
06 10.06 СВ 2
{6}
20 км н/о +19.4 +13.6 69 +22 +22 комфорт 1010.9 958.5 +13.3 +24.7 0
07 10.06 СВ 2 20 км н/о +20.1 +12.6 62 +23 +23 комфорт 1010.8 958.5
08 10.06 С 2 20 км 9/9
[]
+20.2 +13.2 64 +23 +24 комфорт 1010.1 957.9
09 10.06 С 2
{9}
20 км н/о +23.0 +13.7 56 +26 +26 жарко 1009.2 957.5 0
10 10.06 СВ 2 19 км н/о +25.4 +13.9 49 +28 +28 жарко 1008.1 956.9
11 10.06 Ю 2 19 км н/о +26.5 +14.6 48 +29 +29 жарко 1007.2 956.2
12 10.06 Ю 2
{7}
20 км 10/10 1500 м
[]
+26.0 +13.5 46 +28 +28 жарко 1007.5 956.4 0
13 10.06 ЮЗ 2 19 км 10/10 1500 м
[]
+25.9 +13.4 46 +28 +28 жарко 1007.1 956.0
14 10.06 З 1 20 км 9/9 1500 м
[]
+26.6 +13.3 44 +29 +30 жарко 1006.2 955.3
15 10.06 С 3
{10}
20 км 9/9 1500 м
[]
+23.8 +13.3 52 +26 +27 жарко 1006.1 954.7 0
16 10.06 ЮВ 2 20 км слаб. дождь 10/10 1500 м
[]
+20.2 +16.0 77 +24 +24 комфорт 1007.6 955.6 0.2
17 10.06 СВ 2 20 км 10/10 1500 м
[]
+20.9 +14.1 65 +25 +25 комфорт 1007.3 955.4 0.0
18 10.06 С 4
{12}
20 км 10/10 1500 м
[]
+19.3 +10.6 57 +20 +20 1008.2 955.9 +19.3 +26.8 0.2 0
19 10.06 С 3 20 км дождь 10/8 1440 м
[]
+16.9 +12.2 74 +17 +17 1009.2 956.5 0.8
20 10.06 С 3 20 км слаб. дождь 10/10 1500 м
[]
+15.3 +12.2 82 +15 +15 1010.7 957.6 0.8
21 10.06 СВ 1
{6}
20 км 9/0
[]
+14.6 +12.6 88 +15 +15 1010.7 957.5 2 0
22 10.06 С 2 20 км н/о +14.5 +12.2 86 +14 +14 1010.5 957.3
23 10.06 СВ 2 20 км н/о +14.0 +12.0 88 +14 +14 1010.6 957.3
00 11.06 СВ 1
{5}
20 км н/о +13.0 +11.6 91 +14 +14 1010.7 957.2 0.2 0
01 11.06 В 1 20 км 8/8
[]
+12.8 +11.5 92 +13 +13 1010.6 957.0
02 11.06 В 1 20 км 10/10
[]
+12.6 +11.3 92 +13 +13 1010.3 956.7
03 11.06 С 1
{4}
20 км 10/0
[]
+12.1 +11.0 93 +12 +12 1010.6 956.9 0
04 11.06 В 1 20 км 9/9
[]
+11.8 +10.5 92 +12 +12 1010.4 956.6
05 11.06 В 1 20 км 8/8
[]
+12.5 +10.9 90 +12 +13 1009.8 956.2
06 11.06 В 1
{3}
20 км 9/0
[]
+13.2 +11.1 87 +14 +14 1010.3 956.8 +11.8 +19.3 2 0
07 11.06 В 1 20 км н/о +14.4 +11.0 80 +16 +16 1010.6 957.3
08 11.06 С 1 20 км слаб. дождь 10/1 900 м
[]
+14.7 +11.1 79 +16 +21 1010.6 957.4 0.0
09 11.06 штиль 0
{3}
19 км слаб. дождь 10/10 1500 м
[]
+14.6 +12.6 88 +14 +14 1011.5 958.2 0.8 0
10 11.06 С 1 20 км слаб. дождь 10/1 870 м
[]
+14.7 +12.9 89 +15 +24 1010.9 957.7 0.6
11 11.06 С 1 20 км слаб. дождь 10/1 1380 м
[]
+15.0 +13.0 88 +16 +27 1010.7 957.6 0.0
12 11.06 С 1
{4}
20 км 9/0 2000 м
[]
+15.6 +12.9 84 +16 +19 1010.4 957.4 0.6 0
13 11.06 С 1 20 км слаб. дождь 10/1 540 м
[]
+16.1 +13.2 83 +17 +26 1010.5 957.6 0.0
14 11.06 Ю 1 20 км 9/6 1470 м
[]
+17.0 +12.9 77 +19 +23 1010.3 957.5 0.0
15 11.06 ЮЗ 1
{3}
20 км 10/10 600 м
[]
+17.3 +12.2 72 +19 +24 1010.1 957.4 0.0 0
16 11.06 ЮЗ 2 20 км 10/10 630 м
[]
+16.4 +13.1 81 +16 +16 1010.1 957.2 0.0
17 11.06 ЮЗ 2 20 км 10/10 700 м
[]
+15.3 +13.1 87 +15 +15 1010.3 957.2 0.2
18 11.06 ЮЗ 3
{9}
20 км слаб. дождь 10/10 600 м
[]
+14.5 +12.0 85 +14 +14 1011.5 958.2 +13.2 +17.3 0.2 0
19 11.06 Ю 1 20 км слаб. дождь 10/10 960 м
[]
+13.2 +11.6 90 +13 +13 1012.0 958.4 0.2
20 11.06 штиль 0 19 км слаб. дождь 10/9 900 м
[]
+12.8 +12.0 95 +12 +12 1012.1 958.5 1
21 11.06 З 1
{2}
20 км 10/10 600 м
[]
+12.5 +12.0 97 +13 +13 1011.7 958.0 2 0
22 11.06 ЮЗ 1 19 км 10/10 150 м
[]
+12.7 +12.2 97 +13 +13 1011.5 957.9
23 11.06 ЮЗ 1 19 км 10/10 150 м
[]
+12.7 +12.2 97 +13 +13 1011.6 958.0 0.0
00 12.06 ЮЗ 2
{6}
19 км 10/10 50 м
[]
+12.5 +12.2 98 +11 +11 1011.9 958.2 1 0
01 12.06 В 1 20 км 10/9 240 м
[]
+12.3 +11.7 96 +12 +12 1011.0 957.3
02 12.06 ЮЗ 1 20 км 10/9 1000 м
[]
+11.9 +11.1 95 +12 +12 1011.8 958.0
01 13.06 СВ 1 20 км н/о +8.0 +6.9 93 +8 +8 1016.9 962.0
02 13.06 СВ 1 20 км н/о +7.2 +6.3 94 +7 +7 1016.8 961.8
04 13.06 СВ 1 20 км н/о +8.7 +6.8 88 +8 +8 1016.5 961.8
05 13.06 В 1 20 км н/о +10.9 +7.0 77 +11 +11 1016.4 962.1
07 13.06 СВ 3 20 км н/о +14.7 +6.8 59 +14 +14 1016.3 962.7
08 13.06 С 2 19 км н/о +16.6 +7.2 54 +17 +17 1016.0 962.8
09 13.06 В 1 20 км н/о +19.7 +6.4 42 +21 +21 комфорт 1015.3 962.6
10 13.06 ЮЗ 1 20 км н/о +22.3 +1.9 26 +22 +22 комфорт 1014.6 962.4
11 13.06 ЮЗ 1 20 км н/о +23.6 +3.5 27 +23 +23 комфорт 1014.1 962.1
12 13.06 ЮЗ 3
{10}
20 км н/о +24.7 +3.9 26 +24 +24 комфорт 1013.8 962.0 0
13 13.06 ЮЗ 2 20 км н/о +25.1 +2.5 23 +24 +24 комфорт 1013.6 961.9
14 13.06 ЮЗ 3 20 км н/о +26.0 +2.0 21 +25 +25 комфорт 1013.2 961.7
15 13.06 З 2
{9}
20 км н/о +26.1 +2.7 22 +25 +25 комфорт 1013.1 961.6 0
16 13.06 Ю 2 20 км н/о +26.2 +4.0 24 +25 +25 комфорт 1012.7 961.2
17 13.06 Ю 2 20 км н/о +25.6 +6.7 30 +25 +25 комфорт 1012.5 961.0
18 13.06 Ю 2
{7}
20 км н/о +22.8 +5.7 33 +23 +23 комфорт 1013.9 961.8 +13.0 +26.5 0
19 13.06 ЮЗ 2 20 км 8/8
[]
+20.7 +5.9 38 +22 +22 комфорт 1014.0 961.6
20 13.06 З 1 20 км 9/9
[]
+18.0 +6.2 46 +20 +20 1015.0 962.0
21 13.06 СВ 1
{5}
20 км 10/0
[]
+16.8 +8.0 56 +18 +18 1015.1 962.0 0
22 13.06 СВ 1 20 км 10/10
[]
+16.5 +7.4 55 +18 +18 1015.5 962.3
23 13.06 СВ 1 20 км 10/10
[]
+16.4 +7.1 54 +17 +17 1014.5 961.3
00 14.06 штиль 0
{6}
20 км 9/0
[]
+15.6 +6.0 53 +16 +16 1015.4 962.0 0
01 14.06 З 1 20 км н/о +14.0 +6.8 62 +15 +15 1015.2 961.5
02 14.06 ЮВ 2 20 км 10/10
[]
+15.3 +8.5 64 +16 +16 1015.0 961.6
03 14.06 С 1
{6}
20 км 10/0
[]
+17.4 +7.2 51 +18 +18 1013.7 960.7 0
04 14.06 СВ 2 20 км 10/10
[]
+15.3 +8.5 64 +16 +16 1013.0 959.7
05 14.06 С 1 20 км н/о +17.4 +8.0 54 +18 +18 1012.4 959.5
06 14.06 СВ 2
{6}
20 км 9/0
[]
+18.1 +9.4 57 +19 +19 1012.5 959.7 +13.9 +22.8 0
07 14.06 СВ 2 20 км 9/9
[]
+20.6 +9.2 48 +23 +23 комфорт 1012.4 960.1
08 14.06 С 3 20 км 9/9
[]
+21.1 +9.0 46 +22 +23 комфорт 1011.3 959.1
09 14.06 СВ 2
{7}
20 км 10/0
[]
+20.7 +10.5 52 +23 +23 комфорт 1011.0 958.8 0
10 14.06 С 1 20 км 9/9
[]
+23.7 +11.4 46 +25 +27 комфорт 1009.6 958.0
11 14.06 СВ 1 20 км 9/9
[]
+24.5 +12.4 47 +26 +28 жарко 1009.5 958.0
12 14.06 В 1
{5}
20 км н/о +28.0 +13.9 42 +30 +30 жарко 1008.0 957.2 0
13 14.06 ЮЗ 2 20 км 9/9
[]
+27.0 +14.7 47 +30 +31 душно 1007.2 956.3
14 14.06 ЮЗ 2 20 км н/о +27.5 +11.9 38 +29 +29 жарко 1007.8 956.9
15 14.06 В 3
{12}
20 км 9/0
[]
+29.0 +7.0 25 +28 +29 жарко 1005.3 954.7 0
16 14.06 Ю 2 20 км 9/9
[]
+26.6 +10.3 36 +27 +28 жарко 1006.1 955.1
17 14.06 ЮВ 2 19 км 9/9
[]
+27.1 +9.4 33 +27 +28 жарко 1006.3 955.4
18 14.06 ЮВ 5-16
{16}
19 км 10/0
[]
+27.5 +8.9 31 +28 +28 жарко 1006.1 955.3 +18.3 +29.0 0
19 14.06 В 4 20 км 10/10
[]
+26.6 +9.4 34 +27 +27 жарко 1006.3 955.3
20 14.06 ЮЗ 5 20 км 8/8
[]
+22.9 +12.5 52 +26 +26 жарко 1010.2 958.4
21 14.06 З 2
{12}
20 км н/о +20.7 +14.1 66 +24 +24 комфорт 1011.8 959.6 0
22 14.06 ЮЗ 2 19 км н/о +18.6 +14.7 78 +20 +20 1012.4 959.8
23 14.06 З 2 18 км н/о +18.0 +14.7 81 +19 +19 1013.0 960.3
00 15.06 ЮЗ 2
{9}
16 км н/о +19.1 +15.6 80 +21 +21 комфорт 1013.5 961.0 0
01 15.06 ЮЗ 2 15 км 10/10 570 м
[]
+19.0 +16.0 83 +21 +21 комфорт 1014.3 961.7
02 15.06 Ю 1 15 км 10/8 570 м
[]
+18.8 +15.8 83 +21 +21 комфорт 1014.0 961.4
03 15.06 В 1
{2}
12 км 10/10 1000 м
[]
+17.2 +15.2 88 +19 +19 1014.6 961.7 0
04 15.06 ЮВ 1 12 км 10/10 1110 м
[]
+16.5 +14.9 90 +17 +17 1015.1 962.0
05 15.06 штиль 0 14 км н/о +16.6 +15.1 91 +16 +16 1015.4 962.3
06 15.06 ЮВ 1
{2}
15 км н/о +18.1 +15.5 85 +20 +20 1015.4 962.6 +16.1 +27.5 0
07 15.06 Ю 1 17 км 10/10 800 м
[]
+20.7 +15.9 74 +25 +25 комфорт 1015.1 962.8
08 15.06 З 1 17 км н/о +22.2 +15.1 64 +26 +26 душно 1014.8 962.7
09 15.06 ЮЗ 1
{4}
18 км н/о +22.7 +15.8 65 +27 +27 душно 1014.7 962.7 0
10 15.06 ЮЗ 3 18 км н/о +24.1 +16.4 62 +28 +28 душно 1014.6 962.9
11 15.06 ЮЗ 3 18 км н/о +24.9 +16.6 60 +28 +28 жарко 1014.2 962.7
12 15.06 ЮЗ 3
{9}
19 км н/о +25.7 +16.0 55 +29 +29 душно 1013.8 962.4 0
13 15.06 ЮЗ 3 20 км н/о +27.0 +15.4 49 +30 +30 душно 1013.3 962.1
14 15.06 ЮЗ 3 20 км н/о +26.9 +14.6 47 +29 +29 жарко 1012.8 961.6
15 15.06 ЮЗ 4
{10}
20 км н/о +27.4 +15.4 48 +30 +30 жарко 1012.8 961.7 0
16 15.06 ЮЗ 4 19 км н/о +26.5 +14.9 49 +29 +29 жарко 1012.9 961.7
17 15.06 З 3 20 км н/о +25.8 +13.3 46 +28 +28 жарко 1013.5 962.1
18 15.06 С 4
{11}
20 км н/о +22.7 +12.9 54 +26 +26 жарко 1014.6 962.6 +18.2 +28.0 0
19 15.06 С 4 20 км н/о +21.0 +11.3 54 +23 +23 комфорт 1015.2 962.8
20 15.06 С 2 20 км н/о +19.9 +11.4 58 +22 +22 комфорт 1015.5 962.9
21 15.06 С 2 20 км н/о +19.1 +10.9 59 +21 +21 комфорт 1016.1 963.4
22 15.06 С 3 20 км н/о +18.1 +11.2 64 +19 +19 1016.8 963.8

 

Местоположение метеостанции Шато-Арну-Сент-Обан (Франция): широта 44.07 долгота 6.00 высота над уровнем моря 461 м.

В архиве по умолчанию представлена погода в Шато-Арну-Сент-Обане за последнюю неделю. Архивные данные за месяц целиком и за предыдущие месяцы, начиная с января 2011 года, Вы можете получить, выбрав интересующий диапазон дат из раскрывающегося списка и нажав кнопку "Ввод!".


*Определитесь, кто Вы:
робот инопланетянин человек

Внимание! Время в таблицах - всемирное. Для получения местного времени необходимо прибавить поправку, которая равна 1 ч.

Смотрите также архив погоды в соседних городах и на ближайших метеорологических станциях:

Погода в Амбрёне (Франция) (68 км)
Погода в Карпентрасе (Франция) (76 км)
Погода в Ле-Люке (Франция) (83 км)
Погода в Салон-де-Провансе (Франция) (89 км)
Погода в Авиньон (Франция) (90 км)
Погода в Мариньяне (Франция) (93 км)
Погода в Оранже (Франция) (94 км)
Погода в Каннах (Франция) (97 км)
Погода в Ла-Сьоте (Франция) (105 км)
Погода в Истре (Франция) (106 км)

Пояснения к столбцам:

Ветер - указаны скорость ветра в м/с - средняя за 10 мин, порывы в срок и между сроками (в фигурных скобках) и направление, откуда дует ветер: С - северный, СВ - северо-восточный, В - восточный, ЮВ - юго-восточный, Ю - южный, ЮЗ - юго-западный, З - западный, СЗ - северо-западный.
Видимость - горизонтальная дальность видимости в метрах или километрах. При видимости от 1 до 10 км при отсутствии осадков обычно наблюдается дымка, при ухудшении видимости до 1 км и менее - туман. В сухую погоду видимость может ухудшаться дымом, пылью или мглою.
Явления - указаны атмосферные явления, наблюдавшиеся в срок или в последний час перед сроком; фигурными скобками обозначены явления, наблюдавшиеся между сроками (за 1-3 часа до срока); квадратными скобками обозначены град или гололедные отложения с указанием их диаметра в мм.
Облачность - указаны через наклонную черту общая и нижняя облачность в баллах и высота нижней границы облаков в метрах; квадратными скобками обозначены формы облаков: Ci - перистые, Cs - перисто-слоистые, Cc - перисто-кучевые, Ac - высококучевые, As - высокослоистые, Sc - слоисто-кучевые, Ns - слоисто-дождевые, Cu - кучевые, Cb - кучево-дождевые. Подробнее классификацию облаков см. в Атласе облаков (PDF).
T - Температура воздуха - температура, измеренная на высоте 2 м над землей.
Td - Температура точки росы - температура, при понижении до которой содержащийся в воздухе водяной пар достигнет насыщения.
f - Относительная влажность воздуха - влажноcть воздуха, измеренная на высоте 2 м над землей.
Te - Эффективная температура - температура, которую ощущает одетый по сезону человек в тени. Характеристика душности погоды. При расчете учитывается влияние влажности воздуха и скорости ветра на теплоощущения человека.
Tes - Эффективная температура на солнце - температура, которую ощущает человек, с поправкой на солнечный нагрев. Характеристика знойности погоды. Зависит от высоты солнца над горизонтом, облачности и скорости ветра. Ночью, в пасмурную погоду, а также при ветре 12 м/с и более поправка равна нулю.
P - Атмосферное давление - приведенное к уровню моря атмосферное давление.
Po - Атмосферное давление - измеренное на уровне метеостанции атмосферное давление.
Tmin - Минимальная температура - минимум температуры воздуха на высоте 2 м над землей.
Tmax - Максимальная температура - максимум температуры воздуха на высоте 2 м над землей.
R - Количество осадков - Количество выпавших осадков за период времени, мм. При наведении курсора мыши на число - период времени, за который выпало указанное количество осадков.
R24 - Количество осадков - Количество выпавших осадков за 24 часа, мм.
S - Снежный покров - Высота снежного покрова, см. При наведении курсора мыши на число - состояние снежного покрова и степень покрытия местности в баллах.